Printer-friendly version

IAU Minor Planet Center

Minor Planet Center

MPEC 2005-G49 : 2005 GB34

The following Minor Planet Electronic Circular may be linked-to from your own Web pages, but must not otherwise be redistributed electronically.


Read MPEC 2005-G48 Read MPEC 2005-G50


M.P.E.C. 2005-G49                                Issued 2005 Apr. 7, 18:05 UT

     The Minor Planet Electronic Circulars contain information on unusual
         minor planets and routine data on comets.  They are published
   on behalf of Commission 20 of the International Astronomical Union by the
          Minor Planet Center, Smithsonian Astrophysical Observatory,
                          Cambridge, MA 02138, U.S.A.

                  Supported in part by the Brinson Foundation
             Prepared using the Tamkin Foundation Computer Network

                              MPC@CFA.HARVARD.EDU
          URL http://cfa-www.harvard.edu/iau/mpc.html  ISSN 1523-6714

                                   2005 GB34

Observations:
     K05G34B* C2005 04 06.96321 13 23 58.61 +34 42 42.9          15   R EG049118
     K05G34B  C2005 04 06.96391 13 23 55.98 +34 41 18.2                 EG049118
     K05G34B  C2005 04 06.96437 13 23 54.00 +34 39 59.8                 EG049118
     K05G34B  C2005 04 06.96507 13 23 52.19 +34 38 33.2                 EG049118
     K05G34B  C2005 04 06.96554 13 23 49.92 +34 37 14.0                 EG049118
     K05G34B  C2005 04 06.96624 13 23 47.55 +34 35 45.0                 EG049118
     K05G34B  C2005 04 06.96671 13 23 46.06 +34 34 32.6                 EG049118
     K05G34B  C2005 04 06.96741 13 23 42.37 +34 32 57.3                 EG049118
     K05G34B  C2005 04 06.96787 13 23 40.71 +34 31 35.8                 EG049118
     K05G34B  C2005 04 06.96857 13 23 38.56 +34 30 05.2                 EG049118
     K05G34B  C2005 04 06.96904 13 23 36.60 +34 28 54.1                 EG049118
     K05G34B  C2005 04 06.96974 13 23 33.85 +34 27 19.6                 EG049118
     K05G34B  C2005 04 06.97019 13 23 32.40 +34 26 02.6                 EG049118
     K05G34B  C2005 04 06.97089 13 23 29.37 +34 24 31.3                 EG049118
     K05G34B  C2005 04 06.97135 13 23 27.24 +34 23 13.5                 EG049118
     K05G34B  C2005 04 06.97205 13 23 25.35 +34 21 42.1                 EG049118
     K05G34B  C2005 04 06.97252 13 23 23.17 +34 20 28.8                 EG049118
     K05G34B  C2005 04 06.97322 13 23 20.69 +34 18 56.4                 EG049118
     K05G34B  C2005 04 06.97367 13 23 18.83 +34 17 40.9                 EG049118
     K05G34B  C2005 04 07.09902 13 15 26.99 +28 55 03.8                 EG049118
     K05G34B  C2005 04 07.09958 13 15 25.13 +28 53 34.3                 EG049118
     K05G34B  C2005 04 07.10015 13 15 22.99 +28 51 59.0                 EG049118
     K05G34B  C2005 04 07.10078 13 15 20.70 +28 50 16.6                 EG049118
     K05G34B  C2005 04 07.10131 13 15 18.73 +28 48 48.9                 EG049118
     K05G34B  C2005 04 07.10183 13 15 16.90 +28 47 27.3          17   R EG049118
     K05G34B  C2005 04 07.13180913 13 42.43 +27 25 06.9          16.1 R EG049J95
     K05G34B  C2005 04 07.13270113 13 39.15 +27 22 36.7          16.4 R EG049J95
     K05G34B  C2005 04 07.13376713 13 35.25 +27 19 37.9          16.5 R EG049J95
     K05G34B  C2005 04 07.13674513 13 24.33 +27 11 17.7          16.6 R EG049J95
     K05G34B  C2005 04 07.13835413 13 18.46 +27 06 46.8          16.9 R EG049J95
     K05G34B  C2005 04 07.15258613 12 26.73 +26 26 35.2          16.6 R EG049J95
     K05G34B  C2005 04 07.15442113 12 20.09 +26 21 22.6          16.1 R EG049J95
     K05G34B  C2005 04 07.16592613 11 38.59 +25 48 31.0          16.2 R EG049J95
     K05G34B  C2005 04 07.17260013 11 14.72 +25 29 19.4          16.7 R EG049J95
     K05G34B  C2005 04 07.17695813 10 59.16 +25 16 44.7          16.6 R EG049J95
     K05G34B  C2005 04 07.29126 13 04 47.45 +19 41 14.5          16.7 R EG049932
     K05G34B  C2005 04 07.29378 13 04 38.13 +19 33 25.9          16.8 R EG049932
     K05G34B  C2005 04 07.29823 13 04 21.69 +19 19 35.9          16.7 R EG049932
     K05G34B  C2005 04 07.31653 13 03 52.55 +18 26 31.3          15.1 R EG049854
     K05G34B  C2005 04 07.31676 13 03 51.64 +18 25 46.7          15.4 R EG049854
     K05G34B  C2005 04 07.31700 13 03 50.78 +18 25 03.9          15.2 R EG049854
     K05G34B  C2005 04 07.31723 13 03 49.86 +18 24 20.3          15.1 R EG049854
     K05G34B  C2005 04 07.37821 12 59 58.58 +15 10 10.3          15.5 R EG049854
     K05G34B  C2005 04 07.37844 12 59 57.68 +15 09 26.4          15.5 R EG049854
     K05G34B  C2005 04 07.37867 12 59 56.88 +15 08 41.5          15.7 R EG049854
     K05G34B  C2005 04 07.38116 12 59 47.50 +15 00 38.8          14.6 R EG049854
     K05G34B  C2005 04 07.38138 12 59 46.71 +14 59 55.0          14.8 R EG049854
     K05G34B  C2005 04 07.38161 12 59 45.88 +14 59 12.1          14.9 R EG049854
     K05G34B 1C2005 04 07.59050012 48 47.57 +03 49 15.6          15.4 R EG049413
     K05G34B 1C2005 04 07.59166912 48 43.25 +03 45 20.2          15.5 R EG049413
     K05G34B 1C2005 04 07.59283812 48 38.88 +03 41 24.7          15.7 R EG049413
     K05G34B 1C2005 04 07.71084712 41 32.44 -02 52 45.3          15.7 R EG049413
     K05G34B 1C2005 04 07.71448112 41 19.82 -03 04 44.4          15.6 R EG049413
     K05G34B 1C2005 04 07.71570312 41 15.58 -03 08 45.8          15.4 R EG049413

Observer details:
118 Modra.  Observer A. Galad.  0.6-m f/5.5 reflector + CCD.
413 Siding Spring.  Observer R. H. McNaught.  1.0-m f/8 reflector + CCD.
854 Sabino Canyon Observatory, Tucson.  Observer J. E. McGaha.  0.36-m f/10.0
    Schmidt-Cassegrain + CCD.
932 John J. McCarthy Obs., New Milford.  Observer M. Robson.  0.4-m f/7.3
    Schmidt-Cassegrain + CCD.
J95 Great Shefford.  Observer P. Birtwhistle.  0.30-m f/6.3 Schmidt-Cassegrain
    + CCD.

Orbital elements:
2005 GB34
Epoch 2005 Jan. 30.0 TT = JDT 2453400.5                 MPC
M 330.14868              (2000.0)            P               Q
n   0.58715409     Peri.  161.07138     -0.99365584     -0.03601993
a   1.4124334      Node    17.89768     -0.04578913     -0.73567567
e   0.2950042      Incl.   20.28404     +0.10272011     -0.67637555
P   1.68           H   25.8           G   0.15           U   6
Residuals in seconds of arc
050406 118 (4.6- 16.5-)   050406 118 (1.1-  9.3-)   050407 932  0.0   1.0+
050406 118 (4.0-  0.7-)   050407 118  1.8-  1.0-    050407 932  0.9+  1.5+
050406 118 (6.7- 13.1-)   050407 118  0.6+  1.1+    050407 854 (0.8-  2.3-)
050406 118 (4.1+  0.9+)   050407 118  0.1-  0.8-    050407 854 (1.2-  3.7-)
050406 118 (1.7- 10.7-)   050407 118  0.1+  0.0     050407 854  0.4-  1.4-
050406 118 (2.1+  1.1+)   050407 118  0.3-  0.9-    050407 854  1.0-  1.8-
050406 118 (6.0+  3.7-)   050407 118 (0.6+  2.7+)   050407 854 (0.1+  2.3-)
050406 118 (6.5-  1.9+)   050407 J95  0.2+  0.2+    050407 854  0.4-  1.6-
050406 118 (5.2- 13.3-)   050407 J95  0.0   0.4-    050407 854  0.5+  1.9-
050406 118 (1.3+  2.9-)   050407 J95  0.0   0.3-    050407 854  0.2-  1.5-
050406 118 (0.7-  6.2-)   050407 J95  0.3-  0.0     050407 854 (0.3+  2.5-)
050406 118  1.5-  0.4+    050407 J95  0.2-  0.0     050407 854  0.7+  0.8-
050406 118 (1.9+ 11.6-)   050407 J95  0.1+  0.0     050407 413  0.2-  0.6+
050406 118 (2.4-  1.7-)   050407 J95  0.1+  0.3+    050407 413  0.1+  0.9+
050406 118 (7.0- 12.9-)   050407 J95  0.3-  0.4+    050407 413  0.4-  1.1+
050406 118 (2.8+  2.9-)   050407 J95  0.4+  0.5+    050407 413  0.0   0.3-
050406 118 (1.9-  8.2-)   050407 J95  0.5+  0.9+    050407 413  0.1-  0.5-
050406 118  0.6+  0.9+    050407 932  0.6-  0.2+    050407 413  0.1-  0.3-

Ephemeris:
2005 GB34                a,e,i = 1.41, 0.30, 20                  q = 0.9958
Date    TT    R. A. (2000) Decl.     Delta      r     Elong.  Phase     V
2005 04 04.0  16 01.55   +72 18.8    0.0257   1.003    96.4    82.1    20.7
2005 04 04.5  15 39.40   +70 42.9    0.0224   1.004    98.7    80.0    20.4
2005 04 05.0  15 14.88   +68 21.2    0.0191   1.005   101.8    77.1    19.9
2005 04 05.5  14 48.23   +64 44.6    0.0160   1.005   106.2    73.0    19.4
2005 04 06.0  14 19.98   +59 00.3    0.0129   1.006   112.7    66.6    18.7
2005 04 06.5  13 50.89   +49 28.5    0.0102   1.006   122.9    56.6    17.9
2005 04 07.0  13 21.89   +33 20.0    0.00800  1.007   139.7    40.0    16.9

2005 04 07.1  13 16.18   +29 02.9    0.00767  1.007   144.0    35.7    16.7
2005 04 07.2  13 10.51   +24 23.9    0.00740  1.007   148.7    31.1    16.5
2005 04 07.3  13 04.90   +19 24.9    0.00718  1.008   153.7    26.1    16.3
2005 04 07.4  12 59.35   +14 09.1    0.00702  1.008   158.9    21.0    16.1
2005 04 07.5  12 53.86   +08 41.4    0.00693  1.008   164.1    15.8    15.9
2005 04 07.6  12 48.43   +03 07.9    0.00691  1.008   169.0    10.9    15.7
2005 04 07.7  12 43.09   -02 24.8    0.00695  1.008   172.7     7.3    15.6
2005 04 07.8  12 37.81   -07 50.0    0.00706  1.008   172.9     7.1    15.6
2005 04 07.9  12 32.62   -13 02.0    0.00724  1.008   169.7    10.2    15.8
2005 04 08.0  12 27.52   -17 56.3    0.00748  1.009   165.5    14.4    16.0
2005 04 08.1  12 22.50   -22 30.2    0.00777  1.009   161.2    18.6    16.2
2005 04 08.2  12 17.57   -26 42.1    0.00810  1.009   157.1    22.7    16.4
2005 04 08.3  12 12.73   -30 32.1    0.00849  1.009   153.3    26.5    16.7
2005 04 08.4  12 07.98   -34 00.6    0.00891  1.009   149.8    29.9    16.9
2005 04 08.5  12 03.33   -37 09.2    0.00936  1.009   146.6    33.1    17.1
2005 04 08.6  11 58.78   -39 59.2    0.00984  1.009   143.8    35.9    17.3
2005 04 08.7  11 54.32   -42 32.4    0.0103   1.010   141.1    38.5    17.4
2005 04 08.8  11 49.95   -44 50.6    0.0109   1.010   138.7    40.8    17.6
2005 04 08.9  11 45.69   -46 55.2    0.0114   1.010   136.6    43.0    17.8
2005 04 09.0  11 41.52   -48 47.8    0.0120   1.010   134.6    44.9    17.9

2005 04 09.5  11 22.09   -55 53.0    0.0149   1.011   127.1    52.2    18.6
2005 04 10.0  11 04.94   -60 25.8    0.0180   1.012   122.1    57.0    19.2
2005 04 10.5  10 49.84   -63 30.5    0.0213   1.012   118.7    60.3    19.6
2005 04 11.0  10 36.59   -65 41.5    0.0245   1.013   116.2    62.6    20.0
2005 04 11.5  10 24.95   -67 17.8    0.0279   1.014   114.3    64.3    20.3
2005 04 12.0  10 14.70   -68 30.9    0.0312   1.015   112.8    65.6    20.6
2005 04 12.5  10 05.66   -69 27.8    0.0346   1.016   111.6    66.6    20.9
2005 04 13.0  09 57.66   -70 13.0    0.0380   1.017   110.7    67.3    21.1
2005 04 13.5  09 50.55   -70 49.6    0.0413   1.018   109.9    67.9    21.3
2005 04 14.0  09 44.22   -71 19.8    0.0447   1.019   109.2    68.4    21.5
2005 04 14.5  09 38.57   -71 44.9    0.0481   1.020   108.7    68.8    21.7
2005 04 15.0  09 33.51   -72 06.1    0.0515   1.021   108.2    69.0    21.8
2005 04 15.5  09 28.96   -72 24.2    0.0549   1.022   107.8    69.3    22.0
2005 04 16.0  09 24.86   -72 39.7    0.0583   1.023   107.5    69.4    22.1

Gareth V. Williams           (C) Copyright 2005 MPC           M.P.E.C. 2005-G49

Read MPEC 2005-G48 Read MPEC 2005-G50


Our Web policy. Index to the CBAT/MPC/ICQ pages.


Valid HTML 4.01!